When you browse on this site, cookies collect data to enhance your experience and personalize the content and advertising you see.
Visit our Privacy Policy to learn more. By continuing to use the site, you agree to this use of cookies and data.
  • In United Kingdom
  • List of Countries
  • For 7 days
  • Water Temperature
  • Weather Map
  • Weather Widgets
  • user-avatar
    Login

    Hourly Weather Cambridge

    Today, 30 March, Monday

    Time Temperature Precipitation Wind Pressure Humidity
    00:00 -1°C° 0 mm 3 mps 778 mmHg 85%
    01:00 -1°C° 0 mm 3 mps 777 mmHg 88%
    02:00 -1°C° 0 mm 3 mps 777 mmHg 90%
    03:00 -1°C° 0 mm 3 mps 776 mmHg 92%
    04:00 -2°C° 0 mm 4 mps 776 mmHg 90%
    05:00 -1°C° 0 mm 4 mps 775 mmHg 89%
    06:00 -1°C° 0 mm 4 mps 775 mmHg 87%
    07:00 +1°C° 0 mm 5 mps 775 mmHg 84%
    08:00 +2°C° 0 mm 5 mps 775 mmHg 81%
    09:00 +3°C° 0 mm 6 mps 774 mmHg 78%
    10:00 +4°C° 0.1 mm 6 mps 774 mmHg 75%
    11:00 +5°C° 0.1 mm 6 mps 774 mmHg 72%
    12:00 +6°C° 0.1 mm 7 mps 774 mmHg 69%
    13:00 +6°C° 0.1 mm 7 mps 773 mmHg 69%
    14:00 +6°C° 0.1 mm 7 mps 773 mmHg 70%
    15:00 +6°C° 0.1 mm 7 mps 772 mmHg 70%
    16:00 +5°C° 0.1 mm 6 mps 772 mmHg 73%
    17:00 +5°C° 0.1 mm 5 mps 772 mmHg 77%
    18:00 +5°C° 0.1 mm 5 mps 772 mmHg 80%
    19:00 +4°C° 0 mm 4 mps 772 mmHg 84%
    20:00 +3°C° 0 mm 4 mps 773 mmHg 88%
    21:00 +1°C° 0 mm 4 mps 773 mmHg 91%
    22:00 +2°C° 0 mm 3 mps 773 mmHg 91%
    23:00 +1°C° 0 mm 3 mps 773 mmHg 92%

    Tomorrow, 31 March, Tuesday

    Time Temperature Precipitation Wind Pressure Humidity
    00:00 +1°C° 0 mm 3 mps 773 mmHg 92%
    01:00 +1°C° 0 mm 3 mps 773 mmHg 92%
    02:00 0°C° 0 mm 4 mps 773 mmHg 92%
    03:00 -1°C° 0 mm 4 mps 772 mmHg 92%
    04:00 -1°C° 0 mm 4 mps 773 mmHg 92%
    05:00 -1°C° 0 mm 4 mps 773 mmHg 92%
    06:00 0°C° 0 mm 3 mps 773 mmHg 93%
    07:00 +1°C° 0 mm 4 mps 773 mmHg 85%
    08:00 +4°C° 0 mm 4 mps 773 mmHg 77%
    09:00 +6°C° 0 mm 4 mps 773 mmHg 70%
    10:00 +6°C° 0 mm 4 mps 773 mmHg 65%
    11:00 +7°C° 0 mm 4 mps 773 mmHg 61%
    12:00 +8°C° 0 mm 4 mps 773 mmHg 56%
    13:00 +9°C° 0 mm 3 mps 773 mmHg 57%
    14:00 +9°C° 0 mm 3 mps 772 mmHg 57%
    15:00 +9°C° 0 mm 3 mps 772 mmHg 57%
    16:00 +8°C° 0 mm 3 mps 772 mmHg 63%
    17:00 +7°C° 0 mm 3 mps 772 mmHg 69%
    18:00 +5°C° 0 mm 3 mps 771 mmHg 74%
    19:00 +4°C° 0 mm 3 mps 771 mmHg 78%
    20:00 +3°C° 0 mm 2 mps 771 mmHg 82%
    21:00 +2°C° 0 mm 2 mps 771 mmHg 86%
    22:00 +3°C° 0 mm 1 mps 771 mmHg 87%
    23:00 +2°C° 0 mm 1 mps 771 mmHg 87%

    Day after tomorrow, 1 April, Wednesday

    Time Temperature Precipitation Wind Pressure Humidity
    00:00 +1°C° 0 mm 0 mps 770 mmHg 88%
    01:00 +1°C° 0 mm 0 mps 770 mmHg 88%
    02:00 +2°C° 0 mm 1 mps 769 mmHg 89%
    03:00 +2°C° 0 mm 1 mps 769 mmHg 89%
    04:00 +2°C° 0 mm 1 mps 768 mmHg 88%
    05:00 +1°C° 0 mm 2 mps 768 mmHg 87%
    06:00 +1°C° 0 mm 2 mps 768 mmHg 85%
    07:00 +3°C° 0 mm 2 mps 768 mmHg 80%
    08:00 +4°C° 0 mm 3 mps 767 mmHg 75%
    09:00 +5°C° 0 mm 3 mps 767 mmHg 71%
    10:00 +5°C° 0 mm 3 mps 767 mmHg 69%
    11:00 +7°C° 0 mm 3 mps 766 mmHg 67%
    12:00 +6°C° 0 mm 4 mps 766 mmHg 65%
    13:00 +6°C° 0 mm 4 mps 766 mmHg 66%
    14:00 +7°C° 0 mm 3 mps 765 mmHg 67%
    15:00 +7°C° 0 mm 3 mps 765 mmHg 67%
    16:00 +7°C° 0 mm 3 mps 764 mmHg 70%
    17:00 +7°C° 0 mm 2 mps 764 mmHg 72%
    18:00 +8°C° 0 mm 1 mps 764 mmHg 75%
    19:00 +6°C° 0 mm 2 mps 764 mmHg 76%
    20:00 +5°C° 0 mm 2 mps 764 mmHg 77%
    21:00 +4°C° 0 mm 2 mps 764 mmHg 79%
    22:00 +4°C° 0 mm 2 mps 763 mmHg 82%
    23:00 +4°C° 0 mm 2 mps 763 mmHg 84%

    2 April, Thursday

    Time Temperature Precipitation Wind Pressure Humidity
    00:00 +3°C° 0 mm 2 mps 763 mmHg 87%
    01:00 +3°C° 0 mm 2 mps 763 mmHg 90%
    02:00 +3°C° 0 mm 2 mps 762 mmHg 92%
    03:00 +2°C° 0 mm 2 mps 762 mmHg 94%
    04:00 +2°C° 0 mm 2 mps 762 mmHg 95%
    05:00 +2°C° 0 mm 2 mps 762 mmHg 95%
    06:00 +2°C° 0 mm 2 mps 761 mmHg 96%
    07:00 +3°C° 0 mm 3 mps 761 mmHg 93%
    08:00 +4°C° 0 mm 3 mps 761 mmHg 89%
    09:00 +7°C° 0 mm 3 mps 760 mmHg 86%
    10:00 +7°C° 0.1 mm 4 mps 760 mmHg 80%
    11:00 +9°C° 0.1 mm 5 mps 760 mmHg 75%
    12:00 +10°C° 0.1 mm 5 mps 760 mmHg 69%
    13:00 +10°C° 0.1 mm 5 mps 759 mmHg 70%
    14:00 +10°C° 0.1 mm 5 mps 759 mmHg 70%
    15:00 +10°C° 0.1 mm 5 mps 758 mmHg 71%
    16:00 +9°C° 0.1 mm 5 mps 758 mmHg 75%
    17:00 +8°C° 0.1 mm 5 mps 758 mmHg 80%
    18:00 +7°C° 0.1 mm 5 mps 758 mmHg 85%
    19:00 +7°C° 0 mm 4 mps 758 mmHg 87%
    20:00 +6°C° 0 mm 4 mps 758 mmHg 89%
    21:00 +5°C° 0 mm 4 mps 758 mmHg 92%
    22:00 +5°C° 0 mm 4 mps 758 mmHg 92%
    23:00 +5°C° 0 mm 4 mps 759 mmHg 92%

    3 April, Friday

    Time Temperature Precipitation Wind Pressure Humidity
    00:00 +4°C° 0 mm 4 mps 759 mmHg 93%
    01:00 +3°C° 0 mm 4 mps 759 mmHg 92%
    02:00 +3°C° 0 mm 4 mps 760 mmHg 92%
    03:00 +1°C° 0 mm 4 mps 760 mmHg 92%
    04:00 +1°C° 0 mm 3 mps 760 mmHg 92%
    05:00 +1°C° 0 mm 3 mps 761 mmHg 92%
    06:00 0°C° 0 mm 3 mps 762 mmHg 92%
    07:00 +1°C° 0 mm 3 mps 762 mmHg 84%
    08:00 +3°C° 0 mm 3 mps 762 mmHg 76%
    09:00 +5°C° 0 mm 3 mps 763 mmHg 68%
    10:00 +7°C° 0 mm 2 mps 763 mmHg 63%
    11:00 +7°C° 0 mm 2 mps 763 mmHg 58%
    12:00 +8°C° 0 mm 2 mps 764 mmHg 53%
    13:00 +10°C° 0 mm 1 mps 764 mmHg 51%
    14:00 +10°C° 0 mm 1 mps 764 mmHg 50%
    15:00 +11°C° 0 mm 1 mps 764 mmHg 49%
    16:00 +10°C° 0 mm 1 mps 764 mmHg 55%
    17:00 +9°C° 0 mm 1 mps 764 mmHg 60%
    18:00 +8°C° 0 mm 1 mps 764 mmHg 66%
    19:00 +6°C° 0 mm 2 mps 764 mmHg 72%
    20:00 +5°C° 0 mm 2 mps 765 mmHg 78%
    21:00 +2°C° 0 mm 3 mps 765 mmHg 83%
    22:00 +2°C° 0 mm 3 mps 765 mmHg 85%
    23:00 +2°C° 0 mm 3 mps 765 mmHg 87%

    4 April, Saturday

    Time Temperature Precipitation Wind Pressure Humidity
    00:00 +1°C° 0 mm 3 mps 766 mmHg 88%
    01:00 +1°C° 0 mm 3 mps 765 mmHg 88%
    02:00 +1°C° 0 mm 3 mps 765 mmHg 87%
    03:00 +1°C° 0 mm 3 mps 765 mmHg 87%
    04:00 +1°C° 0 mm 3 mps 766 mmHg 87%
    05:00 +1°C° 0 mm 3 mps 766 mmHg 87%
    06:00 +2°C° 0 mm 2 mps 766 mmHg 87%
    07:00 +3°C° 0 mm 3 mps 766 mmHg 80%
    08:00 +5°C° 0 mm 3 mps 766 mmHg 74%
    09:00 +8°C° 0 mm 3 mps 766 mmHg 68%
    10:00 +9°C° 0 mm 3 mps 766 mmHg 64%
    11:00 +10°C° 0 mm 2 mps 766 mmHg 61%
    12:00 +12°C° 0 mm 2 mps 766 mmHg 58%
    13:00 +12°C° 0 mm 2 mps 765 mmHg 57%
    14:00 +12°C° 0 mm 2 mps 765 mmHg 57%
    15:00 +13°C° 0 mm 2 mps 765 mmHg 56%
    16:00 +12°C° 0 mm 2 mps 765 mmHg 62%
    17:00 +10°C° 0 mm 2 mps 765 mmHg 68%
    18:00 +9°C° 0 mm 3 mps 765 mmHg 74%
    19:00 +7°C° 0 mm 3 mps 765 mmHg 76%
    20:00 +5°C° 0 mm 3 mps 766 mmHg 77%
    21:00 +4°C° 0 mm 3 mps 766 mmHg 79%
    22:00 +4°C° 0 mm 2 mps 766 mmHg 79%
    23:00 +4°C° 0 mm 2 mps 766 mmHg 79%
    Show more